User: anonymous   Login
Location: Nebula Knoll Observatory
(43.6666°N, 71.0000°W)
Time: 22:38:37
(UTC-05:00)
Language:

SeaSat 1 - Orbit

View from above orbital plane
View from above orbital plane
View from above satellite
View from above satellite

Ground track
Ground track

The orbit data is extracted from the following two-line orbital elements,

1 10967U 78064A   17020.87581820 -.00000004  00000-0  39195-4 0  9993
2 10967 108.0097 351.6011 0001387 263.3287  96.7699 14.43614804 25342
Epoch (UTC): 20 January 2017 21:01:10
Eccentricity: 0.0001387
inclination: 108.0097°
perigee height: 745 km
apogee height: 747 km
right ascension of ascending node: 351.6011°
argument of perigee: 263.3287°
revolutions per day: 14.43614804
mean anomaly at epoch: 96.7699°
orbit number at epoch: 2534

The dashed part of the orbit path shows where the satellite is in the earth's shadow,  

DLR